Time,TemperatureF,DewpointF,PressureIn,WindDirection,WindDirectionDegrees,WindSpeedMPH,WindSpeedGustMPH,Humidity,HourlyPrecipIn,Conditions,Clouds,dailyrainin,SoftwareType,DateUTC
2013-08-27 00:23:00,70.0,68.0,30.06,ENE,75,0.0,-999.0,94,-99.99,,,-99.99,,2013-08-27 05:23:00,
2013-08-27 00:52:00,70.0,68.0,30.06,ENE,75,0.0,-999.0,93,-99.99,,,-99.99,,2013-08-27 05:52:00,
2013-08-27 01:12:00,70.0,68.0,30.07,ENE,75,0.0,-999.0,94,-99.99,,,-99.99,,2013-08-27 06:12:00,
2013-08-27 01:22:00,69.0,67.0,30.07,ENE,75,0.0,-999.0,93,-99.99,,,-99.99,,2013-08-27 06:22:00,
2013-08-27 01:42:00,69.0,67.0,30.06,ENE,75,0.0,-999.0,93,-99.99,,,-99.99,,2013-08-27 06:42:00,
2013-08-27 01:52:00,68.0,66.0,30.06,ENE,75,0.0,-999.0,94,-99.99,,,-99.99,,2013-08-27 06:52:00,
2013-08-27 02:12:00,68.0,66.0,30.06,ENE,75,0.0,-999.0,94,-99.99,,,-99.99,,2013-08-27 07:12:00,
2013-08-27 02:21:00,68.0,66.0,30.05,ENE,75,0.0,-999.0,94,-99.99,,,-99.99,,2013-08-27 07:21:00,
2013-08-27 02:32:00,68.0,66.0,30.05,ENE,75,0.0,-999.0,94,-99.99,,,-99.99,,2013-08-27 07:32:00,
2013-08-27 02:52:00,67.0,65.0,30.06,ENE,75,0.0,-999.0,94,-99.99,,,-99.99,,2013-08-27 07:52:00,
2013-08-27 03:11:00,67.0,65.0,30.06,ENE,75,0.0,-999.0,94,-99.99,,,-99.99,,2013-08-27 08:11:00,
2013-08-27 03:22:00,67.0,65.0,30.06,ENE,75,0.0,-999.0,94,-99.99,,,-99.99,,2013-08-27 08:22:00,
2013-08-27 03:42:00,67.0,65.0,30.06,ENE,75,0.0,-999.0,94,-99.99,,,-99.99,,2013-08-27 08:42:00,
2013-08-27 03:52:00,66.0,64.0,30.06,ENE,75,0.0,-999.0,94,-99.99,,,-99.99,,2013-08-27 08:52:00,
2013-08-27 04:11:00,66.0,64.0,30.05,ENE,75,0.0,-999.0,94,-99.99,,,-99.99,,2013-08-27 09:11:00,
2013-08-27 04:21:00,66.0,64.0,30.05,ENE,75,0.0,-999.0,94,-99.99,,,-99.99,,2013-08-27 09:21:00,
2013-08-27 04:54:00,65.0,63.0,30.06,ENE,75,0.0,-999.0,94,-99.99,,,-99.99,,2013-08-27 09:54:00,
2013-08-27 05:14:00,65.0,63.0,30.06,ENE,75,0.0,-999.0,94,-99.99,,,-99.99,,2013-08-27 10:14:00,
2013-08-27 05:25:00,65.0,64.0,30.06,ENE,75,0.0,-999.0,95,-99.99,,,-99.99,,2013-08-27 10:25:00,
2013-08-27 05:43:00,65.0,63.0,30.06,ENE,75,0.0,-999.0,94,-99.99,,,-99.99,,2013-08-27 10:43:00,
2013-08-27 05:53:00,65.0,63.0,30.06,ENE,75,0.0,-999.0,94,-99.99,,,-99.99,,2013-08-27 10:53:00,
2013-08-27 06:12:00,64.0,62.0,30.06,ENE,75,0.0,-999.0,94,-99.99,,,-99.99,,2013-08-27 11:12:00,
2013-08-27 06:22:00,64.0,62.0,30.06,ENE,75,0.0,-999.0,94,-99.99,,,-99.99,,2013-08-27 11:22:00,
2013-08-27 06:42:00,64.0,63.0,30.06,ENE,75,0.0,-999.0,95,-99.99,,,-99.99,,2013-08-27 11:42:00,
2013-08-27 06:52:00,64.0,62.0,30.07,ENE,75,0.0,-999.0,94,-99.99,,,-99.99,,2013-08-27 11:52:00,
2013-08-27 07:12:00,63.0,62.0,30.07,ENE,75,0.0,-999.0,95,-99.99,,,-99.99,,2013-08-27 12:12:00,
2013-08-27 07:21:00,63.0,62.0,30.07,ENE,75,0.0,-999.0,95,-99.99,,,-99.99,,2013-08-27 12:21:00,
2013-08-27 07:42:00,63.0,62.0,30.07,ENE,75,0.0,-999.0,95,-99.99,,,-99.99,,2013-08-27 12:42:00,
2013-08-27 07:52:00,64.0,63.0,30.07,ENE,75,0.0,-999.0,95,-99.99,,,-99.99,,2013-08-27 12:52:00,
2013-08-27 08:11:00,64.0,63.0,30.07,ENE,75,0.0,-999.0,95,-99.99,,,-99.99,,2013-08-27 13:11:00,
2013-08-27 08:22:00,66.0,65.0,30.07,ENE,75,0.0,-999.0,95,-99.99,,,-99.99,,2013-08-27 13:22:00,
2013-08-27 08:42:00,68.0,66.0,30.07,ENE,75,0.0,-999.0,94,-99.99,,,-99.99,,2013-08-27 13:42:00,
2013-08-27 08:52:00,69.0,67.0,30.07,ENE,75,0.0,-999.0,93,-99.99,,,-99.99,,2013-08-27 13:52:00,
2013-08-27 09:11:00,70.0,68.0,30.07,ENE,75,0.0,-999.0,92,-99.99,,,-99.99,,2013-08-27 14:11:00,
2013-08-27 09:22:00,72.0,68.0,30.07,ENE,75,0.0,-999.0,88,-99.99,,,-99.99,,2013-08-27 14:22:00,
2013-08-27 09:42:00,74.0,70.0,30.07,ENE,75,0.0,-999.0,86,-99.99,,,-99.99,,2013-08-27 14:42:00,
2013-08-27 09:53:00,75.0,70.0,30.07,ENE,75,0.0,-999.0,85,-99.99,,,-99.99,,2013-08-27 14:53:00,
2013-08-27 10:11:00,77.0,70.0,30.07,East,92,0.0,-999.0,80,-99.99,,,-99.99,,2013-08-27 15:11:00,
2013-08-27 10:22:00,79.0,71.0,30.08,East,92,0.0,-999.0,77,-99.99,,,-99.99,,2013-08-27 15:22:00,
2013-08-27 10:45:00,81.0,72.0,30.07,East,92,0.0,-999.0,73,-99.99,,,-99.99,,2013-08-27 15:45:00,
2013-08-27 10:58:00,83.0,72.0,30.07,East,92,0.0,-999.0,70,-99.99,,,-99.99,,2013-08-27 15:58:00,
2013-08-27 11:17:00,84.0,72.0,30.07,ENE,61,0.0,-999.0,67,-99.99,,,-99.99,,2013-08-27 16:17:00,
2013-08-27 11:28:00,85.0,72.0,30.07,ENE,61,0.0,-999.0,66,-99.99,,,-99.99,,2013-08-27 16:28:00,
2013-08-27 11:55:00,87.0,71.0,30.06,ENE,65,0.0,-999.0,60,-99.99,,,-99.99,,2013-08-27 16:55:00,
2013-08-27 12:13:00,87.0,72.0,30.06,SSW,196,0.0,-999.0,62,-99.99,,,-99.99,,2013-08-27 17:13:00,
2013-08-27 12:23:00,87.0,70.0,30.06,SSW,196,0.0,-999.0,58,-99.99,,,-99.99,,2013-08-27 17:23:00,
2013-08-27 12:52:00,89.0,71.0,30.04,SSW,196,0.0,-999.0,55,-99.99,,,-99.99,,2013-08-27 17:52:00,
2013-08-27 13:12:00,90.0,72.0,30.04,SSW,196,0.0,-999.0,55,-99.99,,,-99.99,,2013-08-27 18:12:00,
2013-08-27 13:22:00,90.0,69.0,30.04,SSW,196,0.0,-999.0,50,-99.99,,,-99.99,,2013-08-27 18:22:00,
2013-08-27 13:52:00,90.0,70.0,30.03,West,263,0.0,-999.0,52,-99.99,,,-99.99,,2013-08-27 18:52:00,
2013-08-27 14:11:00,90.0,67.0,30.02,West,269,0.0,-999.0,47,-99.99,,,-99.99,,2013-08-27 19:11:00,
2013-08-27 14:22:00,90.0,65.0,30.02,WNW,284,0.0,-999.0,44,-99.99,,,-99.99,,2013-08-27 19:22:00,
2013-08-27 14:52:00,91.0,69.0,30.00,North,360,0.0,-999.0,48,-99.99,,,-99.99,,2013-08-27 19:52:00,
2013-08-27 15:11:00,91.0,66.0,29.99,WSW,256,0.0,-999.0,44,-99.99,,,-99.99,,2013-08-27 20:11:00,